Ravenna, OH

6:18 PM EDT on March 23, 2017 (GMT -0400)
Ravenna

Weather History for KPOV - December, 2011

Change the Weather History Date:

Friday, December 16, 2011

  Actual Average (KCAK) Record (KCAK)
Temperature  
Mean Temperature 33 °F -  
Max Temperature 35 °F 38 °F 62 °F (1984)
Min Temperature 29 °F 24 °F -11 °F (1951)
Degree Days  
Heating Degree Days 32    
Moisture  
Dew Point 23 °F    
Average Humidity 68    
Maximum Humidity 83    
Minimum Humidity 63    
Precipitation  
Precipitation 0.00 in - - ()
Sea Level Pressure  
Sea Level Pressure 30.20 in    
Wind  
Wind Speed 10 mph ()    
Max Wind Speed 25 mph    
Max Gust Speed 33 mph    
Visibility 10.0 miles    
Events      
Averages and records for this station are not official NWS values.
T = Trace of Precipitation, MM = Missing Value Source: Averaged Metar Reports

Daily Weather History Graph

Daily Weather History Graph

Search for Another Location

Airport or City:

Trip Planner

Search our weather history database for the weather conditions in past years. The results will help you decide how hot, cold, wet, or windy it might be!

Date:

Astronomy

Dec. 16, 2011 Rise Set
Actual Time 7:43 AM EST 4:57 PM EST
Civil Twilight 7:12 AM EST 5:28 PM EST
Nautical Twilight 6:37 AM EST 6:03 PM EST
Astronomical Twilight 6:04 AM EST 6:36 PM EST
Moon 11:32 PM EST (12/16) 11:26 AM EST (12/16)
Length of Visible Light 10h 15m
Length of Day
9h 13m
Waning Gibbous, 65% of the Moon is Illuminated
Dec 16
Waning Gibbous
Dec 17
Last Quarter
Dec 24
New
Jan 1
First Quarter
Jan 9
Full

Hourly Weather History & Observations

Time (EST) Temp. Windchill Dew Point Humidity Pressure Visibility Wind Dir Wind Speed Gust Speed Precip Events Conditions
12:00 AM 37.8 °F 28.3 °F 26.8 °F 65% 30.03 in 10.0 mi West 17.3 mph 29.9 mph N/A   Overcast
12:20 AM 36.7 °F 26.3 °F 26.6 °F 67% 30.04 in 10.0 mi West 19.6 mph 32.2 mph N/A   Overcast
12:39 AM 36.1 °F 25.5 °F 26.4 °F 68% 30.05 in 10.0 mi West 19.6 mph 28.8 mph N/A   Overcast
1:00 AM 35.6 °F 23.4 °F 25.0 °F 65% 30.07 in 10.0 mi West 25.3 mph 33.4 mph N/A   Overcast
1:39 AM 34.7 °F 25.1 °F 23.9 °F 65% 30.08 in 10.0 mi West 15.0 mph 25.3 mph N/A   Overcast
1:59 AM 34.5 °F 24.5 °F 24.4 °F 67% 30.10 in 10.0 mi West 16.1 mph 27.6 mph N/A   Overcast
2:20 AM 34.3 °F 23.9 °F 24.1 °F 66% 30.10 in 10.0 mi West 17.3 mph 24.2 mph N/A   Overcast
2:39 AM 34.3 °F 23.9 °F 24.3 °F 67% 30.11 in 10.0 mi West 17.3 mph 25.3 mph N/A   Overcast
3:00 AM 34.5 °F 24.8 °F 24.1 °F 66% 30.12 in 10.0 mi West 15.0 mph 24.2 mph N/A   Overcast
3:20 AM 34.5 °F 23.8 °F 23.9 °F 65% 30.13 in 10.0 mi West 18.4 mph 23.0 mph N/A   Overcast
3:39 AM 34.7 °F 24.7 °F 24.4 °F 66% 30.13 in 10.0 mi West 16.1 mph 20.7 mph N/A   Overcast
4:20 AM 34.7 °F 26.4 °F 24.4 °F 66% 30.14 in 10.0 mi West 11.5 mph - N/A   Overcast
4:39 AM 34.9 °F 27.1 °F 24.8 °F 67% 30.16 in 10.0 mi WNW 10.4 mph 23.0 mph N/A   Overcast
5:20 AM 33.3 °F 22.8 °F 23.0 °F 66% 30.18 in 10.0 mi WNW 16.1 mph 21.9 mph N/A   Overcast
5:40 AM 32.9 °F 23.7 °F 23.0 °F 67% 30.19 in 10.0 mi WNW 12.7 mph 18.4 mph N/A   Overcast
6:00 AM 32.0 °F 24.2 °F 22.5 °F 68% 30.19 in 10.0 mi WNW 9.2 mph - N/A   Scattered Clouds
6:39 AM 31.6 °F 27.0 °F 22.1 °F 68% 30.22 in 10.0 mi WNW 4.6 mph - N/A   Scattered Clouds
7:00 AM 30.6 °F 27.1 °F 22.6 °F 72% 30.22 in 10.0 mi West 3.5 mph - N/A   Mostly Cloudy
7:20 AM 30.0 °F - 23.9 °F 78% 30.23 in 10.0 mi Calm Calm - N/A   Mostly Cloudy
7:39 AM 29.1 °F - 24.3 °F 82% 30.24 in 10.0 mi Calm Calm - N/A   Mostly Cloudy
8:00 AM 30.0 °F - 25.5 °F 83% 30.24 in 10.0 mi Calm Calm - N/A   Overcast
8:20 AM 31.1 °F - 23.7 °F 74% 30.24 in 10.0 mi Calm Calm - N/A   Overcast
8:39 AM 31.3 °F - 23.7 °F 74% 30.24 in 10.0 mi Calm Calm - N/A   Overcast
9:00 AM 31.8 °F 28.5 °F 23.0 °F 70% 30.24 in 10.0 mi West 3.5 mph - N/A   Overcast
9:39 AM 32.0 °F 25.6 °F 22.3 °F 67% 30.25 in 10.0 mi West 6.9 mph - N/A   Overcast
10:00 AM 32.4 °F 26.9 °F 23.0 °F 68% 30.25 in 10.0 mi West 5.8 mph - N/A   Overcast
10:20 AM 32.4 °F 27.9 °F 22.8 °F 68% 30.26 in 10.0 mi West 4.6 mph - N/A   Overcast
10:40 AM 32.9 °F 27.5 °F 23.0 °F 67% 30.27 in 10.0 mi West 5.8 mph - N/A   Overcast
10:59 AM 33.1 °F 28.7 °F 23.0 °F 66% 30.27 in 10.0 mi West 4.6 mph - N/A   Overcast
11:20 AM 32.9 °F 27.5 °F 22.5 °F 65% 30.27 in 10.0 mi West 5.8 mph - N/A   Overcast
11:39 AM 32.9 °F 26.7 °F 22.8 °F 66% 30.27 in 10.0 mi WSW 6.9 mph - N/A   Overcast
12:00 PM 33.1 °F 27.7 °F 22.5 °F 65% 30.26 in 10.0 mi West 5.8 mph - N/A   Overcast
12:20 PM 33.3 °F 25.7 °F 22.5 °F 65% 30.26 in 10.0 mi WSW 9.2 mph - N/A   Overcast
12:39 PM 33.3 °F 27.9 °F 22.6 °F 65% 30.25 in 10.0 mi West 5.8 mph - N/A   Overcast
1:00 PM 33.6 °F 26.8 °F 23.0 °F 65% 30.24 in 10.0 mi West 8.1 mph - N/A   Overcast
1:20 PM 33.4 °F 26.6 °F 22.3 °F 64% 30.24 in 10.0 mi West 8.1 mph - N/A   Overcast
1:39 PM 33.4 °F 25.9 °F 22.8 °F 65% 30.23 in 10.0 mi West 9.2 mph - N/A   Overcast
2:00 PM 33.6 °F 27.5 °F 22.3 °F 63% 30.22 in 10.0 mi West 6.9 mph - N/A   Overcast
2:20 PM 33.4 °F 28.1 °F 22.5 °F 64% 30.22 in 10.0 mi West 5.8 mph - N/A   Overcast
2:40 PM 33.8 °F 29.6 °F 23.0 °F 65% 30.21 in 10.0 mi West 4.6 mph - N/A   Overcast
3:20 PM 33.8 °F 27.7 °F 23.0 °F 65% 30.21 in 10.0 mi West 6.9 mph - N/A   Overcast
3:39 PM 33.4 °F 27.3 °F 23.0 °F 66% 30.22 in 10.0 mi WNW 6.9 mph - N/A   Overcast
4:00 PM 33.3 °F 28.9 °F 22.3 °F 64% 30.22 in 10.0 mi West 4.6 mph - N/A   Overcast
4:20 PM 33.1 °F 26.9 °F 22.5 °F 65% 30.23 in 10.0 mi NW 6.9 mph - N/A   Overcast
4:39 PM 32.9 °F 28.5 °F 22.6 °F 66% 30.22 in 10.0 mi NW 4.6 mph - N/A   Overcast
5:00 PM 32.9 °F 29.8 °F 22.8 °F 66% 30.23 in 10.0 mi WNW 3.5 mph - N/A   Overcast
5:20 PM 32.7 °F 27.3 °F 22.8 °F 67% 30.23 in 10.0 mi West 5.8 mph - N/A   Overcast
5:39 PM 32.5 °F 28.1 °F 22.6 °F 67% 30.22 in 10.0 mi West 4.6 mph - N/A   Overcast
6:20 PM 32.4 °F 29.1 °F 22.6 °F 67% 30.21 in 10.0 mi West 3.5 mph - N/A   Overcast
6:39 PM 32.4 °F 26.0 °F 22.8 °F 68% 30.22 in 10.0 mi West 6.9 mph - N/A   Overcast
7:20 PM 32.2 °F 25.8 °F 22.6 °F 68% 30.22 in 10.0 mi West 6.9 mph - N/A   Overcast
7:40 PM 32.2 °F 25.8 °F 22.8 °F 68% 30.22 in 10.0 mi West 6.9 mph - N/A   Overcast
8:00 PM 32.0 °F 26.4 °F 22.8 °F 69% 30.22 in 10.0 mi West 5.8 mph - N/A   Overcast
8:20 PM 32.0 °F 25.6 °F 22.8 °F 69% 30.22 in 10.0 mi West 6.9 mph - N/A   Overcast
8:39 PM 32.0 °F 24.2 °F 23.0 °F 69% 30.22 in 10.0 mi West 9.2 mph - N/A   Overcast
9:00 PM 32.0 °F 23.0 °F 23.0 °F 69% 30.22 in 10.0 mi West 11.5 mph - N/A   Overcast
9:20 PM 32.0 °F 25.6 °F 23.2 °F 70% 30.22 in 10.0 mi West 6.9 mph - N/A   Overcast
9:40 PM 32.0 °F 25.6 °F 23.4 °F 70% 30.22 in 10.0 mi West 6.9 mph - N/A   Overcast
10:00 PM 32.0 °F 24.2 °F 23.7 °F 71% 30.22 in 10.0 mi WNW 9.2 mph - N/A   Overcast
10:20 PM 32.0 °F 24.2 °F 24.1 °F 73% 30.22 in 10.0 mi West 9.2 mph - N/A   Overcast
10:40 PM 32.0 °F 26.4 °F 23.9 °F 72% 30.22 in 10.0 mi West 5.8 mph - N/A   Overcast
11:00 PM 32.0 °F 24.2 °F 23.9 °F 72% 30.23 in 10.0 mi West 9.2 mph - N/A   Overcast
11:20 PM 32.0 °F 24.8 °F 23.9 °F 72% 30.23 in 10.0 mi West 8.1 mph - N/A   Overcast
11:39 PM 32.0 °F 25.6 °F 23.9 °F 72% 30.23 in 10.0 mi West 6.9 mph - N/A   Overcast